[[{"header":{"parameterUnit":"m.s-1","parameterCategory":1,"la1":30.2992,"la2":30.254,"lo1":-89.0895,"lo2":-89.0443,"dy":0.0025,"dx":0.0025,"nx":19,"ny":19,"refTime":"2026-03-13T09:00:00:Z","depth":0,"parameterNumber":2,"parameterNumberName":"U-component_of_WINDS"},"data":[0,0,0,-4.1607,-4.1611,-4.1754,-4.1754,-4.1948,-4.1949,0,0,0,0,0,0,0,0,0,0,0,-4.1569,-4.1571,-4.1607,-4.1611,-4.1754,-4.1754,-4.1947,-4.1949,0,0,0,0,0,0,0,0,0,0,0,-4.1569,-4.157,-4.1572,-4.1611,-4.1753,-4.1754,-4.1947,-4.1836,0,0,0,0,0,0,0,0,0,0,-4.1695,-4.1663,-4.157,-4.1572,-4.1612,-4.1753,-4.1754,-4.183,-4.1843,-4.1887,0,-4.1925,0,-4.1941,-4.1963,-4.1964,0,0,0,-4.1608,-4.1653,-4.1688,-4.1572,-4.1614,-4.1753,-4.1688,-4.1837,-4.1851,-4.1903,-4.1928,-4.1935,-4.1944,-4.1964,-4.1965,-4.2228,-4.2229,0,0,-4.16,-4.1597,-4.1678,-4.1697,-4.1674,-4.1684,-4.1693,-4.1845,-4.1873,-4.1929,-4.194,-4.1947,-4.1965,-4.1967,-4.2227,-4.2228,0,0,0,-4.1579,-4.1592,-4.1623,-4.169,-4.1715,-4.1688,-4.1698,-4.1866,-4.1876,-4.1942,-4.1949,-4.1967,-4.1969,-4.2225,-4.2227,-4.229,0,0,0,-4.1574,-4.158,-4.162,-4.1619,-4.1712,-4.1791,-4.1716,-4.1866,-4.1883,-4.1948,-4.1967,-4.1971,-4.2224,-4.2226,-4.2285,-4.2319,0,0,0,-4.1559,-4.1578,-4.16,-4.1619,-4.168,-4.1789,-4.1808,-4.1869,-4.1888,-4.1964,-4.1972,-4.2223,-4.2226,-4.2281,-4.2312,-4.2386,0,0,0,-4.1541,-4.1654,-4.1601,-4.1731,-4.1679,-4.1828,-4.1807,-4.1918,-4.1991,-4.1968,-4.2224,-4.2227,-4.2279,-4.2307,-4.2382,-4.2446,-4.2473,0,0,-4.1681,-4.167,-4.1748,-4.1705,-4.1861,-4.1806,-4.1974,-4.2043,-4.2054,-4.217,-4.2177,-4.2287,-4.2311,-4.2385,-4.2634,-4.2656,0,0,0,-4.1791,-4.1846,-4.1888,-4.1957,-4.2014,-4.2066,-4.2111,-4.2138,-4.2237,-4.2112,-4.2336,-4.2351,-4.2394,-4.2425,-4.2443,-4.2481,-4.2242,-4.2242,-4.2242,-4.1982,-4.1991,-4.2119,-4.2147,-4.2215,-4.2263,-4.2319,-4.2364,-4.2352,-4.2406,-4.2438,-4.2588,-4.2624,-4.2638,-4.2676,-4.2476,-4.2477,-4.2477,-4.2477,-4.2186,-4.2264,-4.2251,-4.2369,-4.238,-4.2481,-4.2534,-4.2523,-4.262,-4.2563,-4.2602,-4.2535,-4.2661,-4.2695,-4.2482,-4.2481,-4.248,-4.248,-4.248,-4.2308,-4.2347,-4.238,-4.2484,-4.2564,-4.2591,-4.2685,-4.2692,-4.27,-4.2739,-4.2774,-4.2773,-4.277,-4.2756,-4.2757,-4.2757,-4.2758,-4.2758,-4.2758,-4.242,-4.2455,-4.2532,-4.2607,-4.2654,-4.2718,-4.2773,-4.282,-4.2875,-4.2873,-4.2873,-4.2856,-4.2673,-4.2625,-4.2766,-4.2765,-4.2764,-4.2763,-4.2762,-4.2615,-4.2574,-4.2693,-4.2741,-4.2831,-4.2911,-4.2923,-4.302,-4.3062,-4.3109,-4.3087,-4.2951,-4.2939,-4.2925,-4.2884,-4.3085,-4.3085,-4.3085,-4.3085,-4.2715,-4.2713,-4.2837,-4.2914,-4.2991,-4.3015,-4.3152,-4.3199,-4.324,-4.3267,-4.3241,-4.319,-4.3175,-4.3172,-4.3153,-4.3115,-4.3369,-4.3369,-4.337,-4.2835,-4.2841,-4.2953,-4.2994,-4.3067,-4.313,-4.326,-4.3351,-4.339,-4.3381,-4.3288,-4.3276,-4.3194,-4.3167,-4.3149,-4.3118,-4.3049,0,0]},{"header":{"parameterUnit":"m.s-1","parameterCategory":1,"la1":30.2992,"la2":30.254,"lo1":-89.0895,"lo2":-89.0443,"dy":0.0025,"dx":0.0025,"nx":19,"ny":19,"refTime":"2026-03-13T09:00:00:Z","depth":0,"parameterNumber":3,"parameterNumberName":"V-component_of_WINDS"},"data":[0,0,0,2.5344,2.5348,2.5537,2.5538,2.5741,2.5742,0,0,0,0,0,0,0,0,0,0,0,2.5263,2.5264,2.5344,2.5348,2.5537,2.5538,2.574,2.5742,0,0,0,0,0,0,0,0,0,0,0,2.5263,2.5263,2.5264,2.5349,2.5536,2.5538,2.574,2.5612,0,0,0,0,0,0,0,0,0,0,2.5435,2.5335,2.5263,2.5264,2.535,2.5536,2.5538,2.5606,2.562,2.5638,0,2.5646,0,2.5697,2.5753,2.5754,0,0,0,2.5367,2.5323,2.5397,2.5264,2.5351,2.5536,2.5457,2.5614,2.5629,2.5656,2.565,2.5658,2.5701,2.5754,2.5755,2.5797,2.5796,0,0,2.5356,2.5283,2.5386,2.5406,2.5373,2.5451,2.5462,2.5624,2.5613,2.565,2.5664,2.5704,2.5755,2.5756,2.5798,2.5797,0,0,0,2.5314,2.5275,2.5346,2.5396,2.5433,2.5456,2.5469,2.5606,2.5635,2.5666,2.5706,2.5756,2.5758,2.5798,2.5797,2.5692,0,0,0,2.5308,2.5251,2.5341,2.5298,2.5429,2.5521,2.5446,2.5624,2.5644,2.5705,2.5756,2.576,2.5799,2.5798,2.5696,2.5653,0,0,0,2.5259,2.5245,2.5264,2.5293,2.5372,2.5521,2.556,2.563,2.5668,2.5754,2.576,2.58,2.5798,2.5701,2.566,2.5643,0,0,0,2.5186,2.5166,2.5261,2.5255,2.537,2.5454,2.5559,2.5626,2.5687,2.5757,2.5799,2.5797,2.5702,2.5665,2.5647,2.5615,2.5595,0,0,2.512,2.5156,2.5159,2.5249,2.5297,2.5431,2.5465,2.559,2.5666,2.5749,2.5751,2.5695,2.5661,2.5644,2.5509,2.5492,0,0,0,2.5113,2.5114,2.5143,2.5198,2.5293,2.5373,2.5501,2.5549,2.5624,2.5693,2.5687,2.5669,2.5662,2.565,2.5636,2.5636,2.5789,2.5789,2.5789,2.4913,2.5012,2.5024,2.5146,2.5198,2.5333,2.5385,2.5472,2.5555,2.5553,2.5577,2.5483,2.5466,2.5456,2.5454,2.5569,2.5569,2.5569,2.5568,2.4826,2.4843,2.4957,2.5009,2.5114,2.516,2.5291,2.5349,2.5408,2.5472,2.5471,2.5531,2.5435,2.5438,2.5561,2.5563,2.5563,2.5564,2.5565,2.4704,2.473,2.4789,2.4881,2.4942,2.5069,2.512,2.5215,2.5305,2.5304,2.5341,2.5343,2.5357,2.5316,2.5315,2.5315,2.5315,2.5315,2.5314,2.4554,2.4625,2.4656,2.4759,2.4809,2.4887,2.5025,2.5078,2.516,2.5225,2.5226,2.531,2.5407,2.5429,2.531,2.531,2.5311,2.5312,2.5312,2.4426,2.4472,2.4519,2.4569,2.4701,2.4756,2.4878,2.4977,2.5035,2.5058,2.5145,2.5201,2.5244,2.5256,2.5274,2.5123,2.5123,2.5123,2.5123,2.4323,2.4355,2.4427,2.4502,2.4586,2.4702,2.4757,2.4866,2.4986,2.5028,2.5065,2.5099,2.5106,2.5145,2.5159,2.5178,2.5005,2.5005,2.5005,2.425,2.4295,2.4321,2.4439,2.455,2.4644,2.4698,2.4781,2.4927,2.5002,2.5064,2.5069,2.5124,2.5137,2.5209,2.5229,2.5266,0,0]}]]